Home > Weather > Tucson > Past weeks

Flag for USA Past Weather in Tucson, Arizona, USA — Yesterday and Last 2 Weeks

Now
78 °F

Clear.


Feels Like: 80 °F
Forecast: 74 / 94 °F
Wind: 8 mph from Southeast

Location: Davis-Monthan Air Force Base

Current Time: Jul 1, 2016 at 10:45:55 PM

Latest Report: Jul 1, 2016 at 9:58 PM


Visibility: 10 mi

Pressure: 29.91 "Hg (27.43 "Hg at 758m altitude)

Humidity: 71%

Dew Point: 68 °F

Location of TucsonLocation

Past Weather in Tucson — Graph

°F

Tucson Temperature Yesterday

Maximum temperature yesterday: 84 °F (at 3:58 PM)
Minimum temperature yesterday: 70 °F (at 4:03 AM)
Average temperature yesterday: 75 °F

High & Low Weather Summary for the Past Weeks

 TemperatureHumidityPressure
High112 °F (Jun 19, 3:58 PM)100% (Jun 29, 4:58 AM)30.07 "Hg (Jun 29, 4:58 AM)
Low68 °F (Jun 17, 3:58 AM)4% (Jun 19, 1:58 PM)29.68 "Hg (Jun 19, 4:58 PM)
Average87 °F36%29.86 "Hg
* Reported Jun 16 9:58 PM — Jul 1 9:03 PM, Tucson, Weather by CustomWeather, © 2016

Note: Actual official high and low records may vary slightly from our data, if they occured in-between our weather recording intervals... More about our weather records

Advertising

Tucson Weather History for the Previous 24 Hours

Scroll right to see more
 ConditionsComfort  
Time TempWeatherWind HumidityBarometerVisibility
9:03 PM
Fri, Jul 1
79 °FClear.8 mph74%30.02 "Hg10 mi
7:58 PM80 °FClear.6 mph69%29.86 "Hg10 mi
6:58 PM83 °FSunny.5 mph58%29.87 "Hg10 mi
5:58 PM85 °FSunny.6 mph55%29.85 "Hg10 mi
4:58 PM84 °FSunny.3 mph56%29.87 "Hg10 mi
3:58 PM82 °FSunny.5 mph63%29.88 "Hg10 mi
2:58 PM79 °FSunny.7 mph72%29.90 "Hg10 mi
1:58 PM75 °FPassing clouds.7 mph85%29.94 "Hg10 mi
12:58 PM71 °FThundershowers. Passing clouds.3 mph99%29.95 "Hg10 mi
11:58 AM71 °FThundershowers. Partly sunny.7 mph100%29.97 "Hg7 mi
11:03 AM72 °FStrong thunderstorms. Fog.2 mph88%30.07 "Hg0 mi
10:58 AM72 °FStrong thunderstorms. Cloudy.6 mph88%29.96 "Hg0 mi
9:58 AM73 °FScattered clouds.8 mph85%29.93 "Hg10 mi
8:58 AM79 °FDrizzle. Partly sunny.7 mph67%29.93 "Hg10 mi
7:58 AM77 °FLight rain. Broken clouds.5 mph71%29.93 "Hg10 mi
6:58 AM75 °FOvercast.6 mph78%29.90 "Hg10 mi
5:58 AM73 °FOvercast.6 mph82%29.89 "Hg10 mi
4:58 AM74 °FPassing clouds.5 mph77%29.86 "Hg10 mi
3:58 AM74 °FPartly cloudy.2 mph76%29.85 "Hg10 mi
2:59 AM75 °FMostly cloudy.3 mph74%29.97 "Hg10 mi
1:58 AM74 °FOvercast.8 mph79%29.85 "Hg10 mi
12:58 AM74 °FMostly cloudy.9 mph78%29.87 "Hg10 mi
11:58 PM
Thu, Jun 30
75 °FOvercast.9 mph75%29.87 "Hg10 mi
10:58 PM75 °FPartly cloudy.8 mph71%29.86 "Hg10 mi
Weather by CustomWeather, © 2016

See weather overviewHow to use our weather pages